Weather History for Frankfort, KY

Change the Weather History Date:

Sunday, January 22, 2012

  Actual Average Record
Temperature  
Mean Temperature 44 °F 33 °F  
Max Temperature 58 °F 42 °F 74 °F (1916)
Min Temperature 29 °F 24 °F -18 °F (1984)
Degree Days  
Heating Degree Days 21 32  
Month to date heating degree days 651 723  
Since 1 July heating degree days 2273 2555  
Cooling Degree Days 0 0  
Month to date cooling degree days 0 0  
Year to date cooling degree days 0 0  
Moisture  
Dew Point 39 °F    
Average Humidity 90    
Maximum Humidity 100    
Minimum Humidity 80    
Precipitation  
Precipitation 0.08 in 0.09 in 2.58 in (1937)
Month to date precipitation 1.73 2.42  
Year to date precipitation 1.73 2.42  
Sea Level Pressure  
Sea Level Pressure 30.02 in    
Wind  
Wind Speed 8 mph (ESE)    
Max Wind Speed 18 mph    
Max Gust Speed 25 mph    
Visibility 5 miles    
Events Fog , Rain , Thunderstorm    
T = Trace of Precipitation, MM = Missing Value Source: NWS Daily Summary

Daily Weather History Graph

Daily Weather History Graph

Search for Another Location

Airport:

Trip Planner

Search our weather history database for the weather conditions in past years. The results will help you decide how hot, cold, wet, or windy it might be!

Date:

Astronomy

Jan. 22, 2012 Rise Set
Actual Time 7:51 AM EST 5:50 PM EST
Civil Twilight 7:23 AM EST 6:19 PM EST
Nautical Twilight 6:51 AM EST 6:51 PM EST
Astronomical Twilight 6:19 AM EST 7:22 PM EST
Moon 7:07 AM EST (1/22) 5:31 PM EST (1/22)
Length of Visible Light 10h 55m
Length of Day
9h 58m
Waning Crescent, 0% of the Moon is Illuminated
Jan 22
Waning Crescent
Jan 23
New
Jan 30
First Quarter
Feb 7
Full
Feb 14
Last Quarter

Hourly Weather History & Observations

Time (EST) Temp. Windchill Dew Point Humidity Pressure Visibility Wind Dir Wind Speed Gust Speed Precip Events Conditions
12:25 AM 28.4 °F 20.4 °F 26.6 °F 93% 30.16 in 7.0 mi East 8.1 mph - N/A   Overcast
12:53 AM 28.9 °F 20.4 °F 27.0 °F 92% 30.19 in 7.0 mi East 9.2 mph - N/A   Overcast
1:53 AM 28.9 °F 20.4 °F 28.0 °F 96% 30.17 in 7.0 mi East 9.2 mph - N/A   Overcast
2:53 AM 30.0 °F 22.4 °F 28.0 °F 92% 30.17 in 3.0 mi East 8.1 mph - N/A   Overcast
3:32 AM 30.2 °F 22.6 °F 28.4 °F 93% 30.12 in 3.0 mi ENE 8.1 mph - N/A   Overcast
3:53 AM 30.0 °F 20.5 °F 28.0 °F 92% 30.14 in 4.0 mi East 11.5 mph - N/A   Overcast
4:09 AM 30.2 °F 21.9 °F 28.4 °F 93% 30.11 in 2.5 mi East 9.2 mph - N/A   Overcast
4:31 AM 30.2 °F 21.9 °F 28.4 °F 93% 30.10 in 1.8 mi East 9.2 mph - N/A   Overcast
4:53 AM 30.0 °F 22.4 °F 28.9 °F 96% 30.12 in 2.0 mi East 8.1 mph - N/A   Overcast
5:06 AM 30.2 °F 21.3 °F 28.4 °F 93% 30.09 in 1.8 mi East 10.4 mph - N/A   Overcast
5:16 AM 30.2 °F 21.9 °F 28.4 °F 93% 30.09 in 2.0 mi East 9.2 mph - N/A   Overcast
5:26 AM 30.2 °F 21.3 °F 28.4 °F 93% 30.09 in 1.8 mi East 10.4 mph - N/A   Overcast
5:34 AM 30.2 °F 23.4 °F 30.2 °F 100% 30.09 in 2.0 mi East 6.9 mph - N/A   Overcast
5:53 AM 30.0 °F 24.1 °F 30.0 °F 100% 30.11 in 2.0 mi East 5.8 mph - N/A   Overcast
6:03 AM 30.2 °F 22.6 °F 30.2 °F 100% 30.08 in 1.8 mi East 8.1 mph - N/A   Overcast
6:37 AM 30.2 °F 25.4 °F 30.2 °F 100% 30.08 in 2.0 mi East 4.6 mph - N/A   Overcast
6:53 AM 30.9 °F 26.2 °F 30.0 °F 96% 30.10 in 2.0 mi East 4.6 mph - N/A   Overcast
7:53 AM 30.9 °F 25.2 °F 30.0 °F 96% 30.10 in 1.5 mi East 5.8 mph - N/A   Overcast
8:10 AM 30.2 °F 23.4 °F 30.2 °F 100% 30.07 in 0.8 mi East 6.9 mph - N/A   Overcast
8:53 AM 32.0 °F 26.4 °F 30.9 °F 96% 30.10 in 0.5 mi East 5.8 mph - N/A Fog Fog
9:53 AM 33.1 °F 25.5 °F 33.1 °F 100% 30.11 in 0.5 mi SE 9.2 mph - N/A Fog Fog
11:53 AM 37.0 °F 33.3 °F 37.0 °F 100% 30.09 in 0.5 mi SSE 4.6 mph - N/A Fog Fog
12:28 PM 39.2 °F 33.6 °F 37.4 °F 93% 30.05 in 1.0 mi SE 8.1 mph - N/A   Overcast
12:41 PM 39.2 °F 34.2 °F 39.2 °F 100% 30.05 in 1.2 mi SE 6.9 mph - N/A   Overcast
12:53 PM 39.0 °F 34.8 °F 39.0 °F 100% 30.05 in 1.8 mi ESE 5.8 mph - N/A   Overcast
1:05 PM 39.2 °F 33.6 °F 39.2 °F 100% 30.01 in 2.5 mi ESE 8.1 mph - N/A   Overcast
1:14 PM 41.0 °F 37.1 °F 41.0 °F 100% 30.01 in 3.0 mi SE 5.8 mph - N/A   Overcast
1:53 PM 42.1 °F 37.7 °F 41.0 °F 96% 30.01 in 5.0 mi ESE 6.9 mph - N/A   Overcast
2:11 PM 42.8 °F 40.1 °F 42.8 °F 100% 29.98 in 5.0 mi SE 4.6 mph - N/A   Overcast
2:23 PM 44.6 °F 41.4 °F 42.8 °F 93% 29.98 in 6.0 mi SE 5.8 mph - N/A   Overcast
3:14 PM 50.0 °F - 44.6 °F 82% 29.95 in 9.0 mi SE 6.9 mph - N/A   Scattered Clouds
4:08 PM 50.0 °F - 46.4 °F 87% 29.93 in 10.0 mi ESE 5.8 mph - 0.00 in   Overcast
4:53 PM 52.0 °F - 48.0 °F 86% 29.94 in 10.0 mi ESE 6.9 mph - 0.00 in   Overcast
5:53 PM 53.1 °F - 48.0 °F 83% 29.94 in 10.0 mi ESE 6.9 mph - N/A   Overcast
6:53 PM 54.0 °F - 48.9 °F 83% 29.93 in 10.0 mi SE 6.9 mph - N/A   Overcast
7:53 PM 57.0 °F - 51.1 °F 81% 29.92 in 10.0 mi SSE 11.5 mph - N/A   Overcast
8:53 PM 57.9 °F - 51.1 °F 78% 29.91 in 10.0 mi SSE 12.7 mph - N/A   Overcast
9:53 PM 57.0 °F - 51.1 °F 81% 29.88 in 10.0 mi South 15.0 mph 23.0 mph N/A   Overcast
10:05 PM 57.2 °F - 51.8 °F 82% 29.88 in 10.0 mi South 15.0 mph 24.2 mph N/A Thunderstorm Overcast
10:22 PM 55.4 °F - 53.6 °F 94% 29.87 in 7.0 mi South 15.0 mph 23.0 mph 0.01 in Rain , Thunderstorm Light Thunderstorms and Rain
10:43 PM 55.4 °F - 53.6 °F 94% 29.86 in 8.0 mi SSE 11.5 mph - 0.03 in Rain Light Rain
10:53 PM 54.0 °F - 53.1 °F 97% 29.87 in 9.0 mi SSE 11.5 mph - 0.03 in Rain Light Rain
11:07 PM 53.6 °F - 51.8 °F 94% 29.84 in 5.0 mi SE 13.8 mph - 0.02 in Rain Rain
11:22 PM 53.6 °F - 51.8 °F 94% 29.83 in 9.0 mi SE 11.5 mph 19.6 mph 0.03 in Rain Light Rain
11:31 PM 53.6 °F - 51.8 °F 94% 29.83 in 10.0 mi SE 13.8 mph 21.9 mph 0.04 in   Overcast
11:53 PM 53.1 °F - 51.1 °F 93% 29.81 in 10.0 mi SE 16.1 mph 21.9 mph 0.04 in   Overcast